EW1806 Kalamata GR current weather conditions

sailwx.info

Wind from 005 at 1 knots gusting 7

Air temperature 22.2° C
Dewpoint 14.1° C

Last reported at 2020-Jul-11 04:00 UTC.
Time now 2020-Jul-11 04:56 UTC

Location: N 37°02' E 022°07'.
View on Google Maps.

See reports from other nearby stations

  
Tides and Currents Weather Stations Pressure Air Temp Water Temp Dewpoint Dewpoint Depression Visibility Wind Speed Wind Dir Waves Ship Positions
date/time (UTC)wind fromknots sea level pressurealtimeterstation pressurevisibilityair tempwater tempwave heightnotes
2020-Jul-11 04:00 005 1 gusting 7 22.2
2020-Jul-11 03:55 012 1 gusting 7 22.2
2020-Jul-11 03:50 015 2 gusting 7 22.2
2020-Jul-11 03:45 345 2 gusting 9 22.2
2020-Jul-11 03:40 360 3 gusting 8 22.2
2020-Jul-11 03:35 027 2 gusting 8 22.2
2020-Jul-11 03:30 319 3 gusting 7 22.2
2020-Jul-11 03:25 360 1 gusting 7 22.2
2020-Jul-11 03:20 016 22.2
2020-Jul-11 03:15 022 1 gusting 6 22.2
2020-Jul-11 03:10 005 1 gusting 6 22.2
2020-Jul-11 03:05 337 2 gusting 7 22.2
2020-Jul-11 03:00 347 2 gusting 7 22.2
2020-Jul-11 02:55 344 2 gusting 7 22.2
2020-Jul-11 02:50 022 4 gusting 6 22.2
2020-Jul-11 02:45 360 1 gusting 7 22.2
2020-Jul-11 02:40 009 2 gusting 9 22.2
2020-Jul-11 02:35 355 3 gusting 9 22.2
2020-Jul-11 02:30 014 3 gusting 6 22.2
2020-Jul-11 02:25 027 2 gusting 6 22.8
2020-Jul-11 02:20 005 1 gusting 6 22.8
2020-Jul-11 02:15 360 0 gusting 5 22.8
2020-Jul-11 02:10 022 1 gusting 5 22.8
2020-Jul-11 02:05 360 0 gusting 6 22.8
2020-Jul-11 02:00 005 1 gusting 6 22.8
2020-Jul-11 01:55 355 1 gusting 5 22.8
2020-Jul-11 01:50 005 1 gusting 5 22.8
2020-Jul-11 01:45 340 0 gusting 6 22.8
2020-Jul-11 01:40 005 22.8
2020-Jul-11 01:35 355 0 gusting 6 22.8
2020-Jul-11 01:30 348 2 gusting 5 22.8
2020-Jul-11 01:25 338 0 gusting 5 22.8
2020-Jul-11 01:20 012 0 gusting 5 22.8
2020-Jul-11 01:15 350 0 gusting 5 22.8
2020-Jul-11 01:10 343 0 gusting 6 22.8
2020-Jul-11 01:05 360 0 gusting 6 22.8
2020-Jul-11 01:00 355 23.3
2020-Jul-11 00:55 355 0 gusting 4 23.3
2020-Jul-11 00:50 355 23.3
2020-Jul-11 00:45 323 23.3
2020-Jul-11 00:40 355 23.3
2020-Jul-11 00:35 360 0 gusting 4 23.3
2020-Jul-11 00:30 019 1 gusting 5 23.3
2020-Jul-11 00:25 010 2 gusting 6 23.3
2020-Jul-11 00:20 348 1 gusting 5 23.3
2020-Jul-11 00:15 032 0 gusting 5 23.3
2020-Jul-11 00:10 005 0 gusting 5 23.3
2020-Jul-11 00:05 355 0 gusting 5 23.3
2020-Jul-11 00:00 355 0 gusting 5 23.3
2020-Jul-10 23:55 024 0 gusting 6 23.3
2020-Jul-10 23:50 005 3 gusting 6 23.9
2020-Jul-10 23:45 009 0 gusting 6 23.9
2020-Jul-10 23:40 340 1 gusting 5 23.9
2020-Jul-10 23:35 024 0 gusting 5 23.9
2020-Jul-10 23:30 330 0 gusting 5 23.9
2020-Jul-10 23:25 311 0 gusting 5 23.9
2020-Jul-10 23:20 342 0 gusting 5 23.9
2020-Jul-10 23:15 343 0 gusting 4 23.9
2020-Jul-10 23:10 355 0 gusting 3 23.9
2020-Jul-10 23:05 017 24.4
2020-Jul-10 23:00 024 0 gusting 5 24.4
2020-Jul-10 22:55 005 0 gusting 4 24.4
2020-Jul-10 22:50 005 0 gusting 4 24.4
2020-Jul-10 22:45 005 24.4
2020-Jul-10 22:40 360 0 gusting 4 24.4
2020-Jul-10 22:35 333 24.4
2020-Jul-10 22:30 329 24.4
2020-Jul-10 22:25 322 0 gusting 3 24.4
2020-Jul-10 22:20 360 24.4
2020-Jul-10 22:15 360 1 gusting 5 24.4
2020-Jul-10 22:10 350 24.4
2020-Jul-10 22:05 020 1 gusting 5 25.0
2020-Jul-10 22:00 348 0 gusting 6 25.0
2020-Jul-10 21:55 014 2 gusting 6 25.0
2020-Jul-10 21:50 005 2 gusting 6 25.0
2020-Jul-10 21:45 326 1 gusting 6 25.0
2020-Jul-10 21:40 355 0 gusting 6 25.0
2020-Jul-10 21:35 315 3 gusting 6 25.0
2020-Jul-10 21:30 333 0 gusting 4 25.0
2020-Jul-10 21:25 325 25.0
2020-Jul-10 21:20 319 1 gusting 6 25.0
2020-Jul-10 21:15 322 2 gusting 6 25.0
2020-Jul-10 21:10 340 2 gusting 7 25.0
2020-Jul-10 21:05 019 1 gusting 7 25.6
2020-Jul-10 21:00 005 0 gusting 6 25.6
2020-Jul-10 20:55 030 0 gusting 6 25.6
2020-Jul-10 20:50 360 2 gusting 6 25.6
2020-Jul-10 20:45 333 0 gusting 6 25.6
2020-Jul-10 20:40 335 25.6
2020-Jul-10 20:35 327 0 gusting 4 25.6
2020-Jul-10 20:30 336 25.6
2020-Jul-10 20:25 355 26.1
2020-Jul-10 20:20 336 26.1
2020-Jul-10 20:15 337 26.1
2020-Jul-10 20:10 333 26.1
2020-Jul-10 20:05 330 26.1
2020-Jul-10 20:00 327 26.1
2020-Jul-10 19:55 311 26.1
2020-Jul-10 19:50 309 26.1
2020-Jul-10 19:45 309 26.1
2020-Jul-10 19:40 304 26.1
2020-Jul-10 19:35 302 26.1
2020-Jul-10 19:30 306 26.7
2020-Jul-10 19:25 313 26.7
2020-Jul-10 19:20 313 26.7
2020-Jul-10 19:15 312 26.7
2020-Jul-10 19:10 313 26.7
2020-Jul-10 19:05 294 27.2
2020-Jul-10 19:00 218 27.2
2020-Jul-10 18:55 216 27.2
2020-Jul-10 18:50 215 27.2
2020-Jul-10 18:45 262 27.2
2020-Jul-10 18:40 293 27.8
2020-Jul-10 18:35 293 27.8
2020-Jul-10 18:30 293 27.8
2020-Jul-10 18:25 293 27.8
2020-Jul-10 18:20 293 27.8
2020-Jul-10 18:15 288 28.3
2020-Jul-10 18:10 180 28.3
2020-Jul-10 18:05 181 28.3
2020-Jul-10 18:00 181 28.3
2020-Jul-10 17:55 181 28.3
2020-Jul-10 17:50 181 28.3
2020-Jul-10 17:45 180 28.3
2020-Jul-10 17:40 180 28.3
2020-Jul-10 17:35 182 28.3
2020-Jul-10 17:30 161 28.3
2020-Jul-10 17:25 173 3 gusting 5 28.3
2020-Jul-10 17:20 190 2 gusting 6 28.3
2020-Jul-10 17:15 165 2 gusting 6 28.9
2020-Jul-10 17:10 173 1 gusting 6 28.9
2020-Jul-10 17:05 151 28.9
2020-Jul-10 17:00 153 28.9
2020-Jul-10 16:55 177 4 gusting 6 28.9
2020-Jul-10 16:50 168 2 gusting 6 28.9
2020-Jul-10 16:45 195 2 gusting 6 28.9
2020-Jul-10 16:40 188 2 gusting 7 28.9
2020-Jul-10 16:35 200 3 gusting 7 28.9
2020-Jul-10 16:30 176 3 gusting 6 29.4
2020-Jul-10 16:25 182 1 gusting 7 28.9
2020-Jul-10 16:20 188 4 gusting 7 28.9
2020-Jul-10 16:15 167 1 gusting 6 28.9
2020-Jul-10 16:10 238 3 gusting 6 28.9
2020-Jul-10 16:05 216 2 gusting 6 28.9
2020-Jul-10 16:00 184 5 gusting 8 29.4
2020-Jul-10 15:55 185 1 gusting 8 30.0
2020-Jul-10 15:50 157 1 gusting 7 30.0
2020-Jul-10 15:45 165 5 gusting 9 29.4
2020-Jul-10 15:40 185 5 gusting 7 30.0
2020-Jul-10 15:35 202 4 gusting 6 30.0
2020-Jul-10 15:30 155 0 gusting 7 30.0
2020-Jul-10 15:25 181 0 gusting 7 30.6
2020-Jul-10 15:20 124 2 gusting 7 30.0
2020-Jul-10 15:15 167 4 gusting 7 30.0
2020-Jul-10 15:10 186 1 gusting 6 30.6
2020-Jul-10 15:05 109 2 gusting 6 30.6
2020-Jul-10 15:00 134 2 gusting 6 30.0
2020-Jul-10 14:55 142 3 gusting 8 30.0
2020-Jul-10 14:50 159 3 gusting 8 30.0
2020-Jul-10 14:40 171 4 gusting 9 30.6
2020-Jul-10 14:35 136 30.6
2020-Jul-10 14:30 164 3 gusting 10 30.0
2020-Jul-10 14:25 153 4 gusting 9 30.0
2020-Jul-10 14:20 130 2 gusting 7 30.6
2020-Jul-10 14:15 171 2 gusting 8 30.6
2020-Jul-10 14:10 120 2 gusting 8 30.0
2020-Jul-10 14:05 156 1 gusting 6 30.6
2020-Jul-10 14:00 133 1 gusting 10 30.0
2020-Jul-10 13:55 176 4 gusting 10 30.6
2020-Jul-10 13:50 145 1 gusting 6 30.6
2020-Jul-10 13:45 194 0 gusting 8 30.6
2020-Jul-10 13:40 192 3 gusting 10 30.0
2020-Jul-10 13:35 175 4 gusting 10 30.0
2020-Jul-10 13:30 189 2 gusting 11 30.0
2020-Jul-10 13:25 181 4 gusting 11 30.0
2020-Jul-10 13:20 136 6 gusting 10 30.0
2020-Jul-10 13:15 188 6 gusting 10 29.4
2020-Jul-10 13:10 193 4 gusting 10 30.0
2020-Jul-10 13:05 202 6 gusting 10 30.0
2020-Jul-10 13:00 161 3 gusting 8 30.0
2020-Jul-10 12:55 173 3 gusting 8 30.6
2020-Jul-10 12:50 180 2 gusting 8 29.4
2020-Jul-10 12:45 193 1 gusting 8 30.0
2020-Jul-10 12:40 139 1 gusting 6 30.0
2020-Jul-10 12:35 155 1 gusting 6 30.0
2020-Jul-10 12:30 148 4 gusting 8 29.4
2020-Jul-10 12:25 146 5 gusting 8 30.0
2020-Jul-10 12:20 141 4 gusting 8 30.0
2020-Jul-10 12:15 146 2 gusting 6 30.0
2020-Jul-10 12:10 148 0 gusting 6 30.6
2020-Jul-10 12:05 122 1 gusting 7 30.6
2020-Jul-10 12:00 162 0 gusting 7 30.0
2020-Jul-10 11:55 155 3 gusting 8 29.4
2020-Jul-10 11:50 152 3 gusting 6 30.0
2020-Jul-10 11:45 186 3 gusting 6 29.4
2020-Jul-10 11:40 169 0 gusting 6 30.0
2020-Jul-10 11:35 127 1 gusting 6 29.4
2020-Jul-10 11:30 141 2 gusting 6 29.4
2020-Jul-10 11:25 156 0 gusting 6 28.9
2020-Jul-10 11:20 159 0 gusting 6 28.9
2020-Jul-10 11:15 158 1 gusting 9 28.3
2020-Jul-10 11:10 178 2 gusting 13 27.8
2020-Jul-10 11:05 186 5 gusting 13 27.8
2020-Jul-10 11:00 182 3 gusting 11 27.2
2020-Jul-10 10:55 188 6 gusting 13 27.8
2020-Jul-10 10:50 175 5 gusting 13 27.2
2020-Jul-10 10:45 192 5 gusting 10 27.8
2020-Jul-10 10:40 144 5 gusting 10 27.2
2020-Jul-10 10:35 176 5 gusting 9 27.2
2020-Jul-10 10:30 173 5 gusting 9 27.2
2020-Jul-10 10:25 144 5 gusting 8 27.8
2020-Jul-10 10:20 165 3 gusting 10 27.8
2020-Jul-10 10:15 144 6 gusting 10 27.8
2020-Jul-10 10:10 165 5 gusting 9 27.8
2020-Jul-10 10:05 167 3 gusting 9 27.8
2020-Jul-10 10:00 138 0 gusting 8 27.2
2020-Jul-10 09:55 161 6 gusting 8 27.2
2020-Jul-10 09:50 202 3 gusting 7 27.8
2020-Jul-10 09:45 169 1 gusting 6 28.3
2020-Jul-10 09:40 175 2 gusting 6 27.8
2020-Jul-10 09:35 106 0 gusting 6 27.8
2020-Jul-10 09:30 175 1 gusting 6 27.2
2020-Jul-10 09:25 171 3 gusting 6 27.2
2020-Jul-10 09:20 199 3 gusting 5 27.8
2020-Jul-10 09:15 109 0 gusting 6 27.2
2020-Jul-10 09:10 180 3 gusting 6 27.2
2020-Jul-10 09:05 138 3 gusting 6 27.2
2020-Jul-10 09:00 134 1 gusting 6 27.2
2020-Jul-10 08:55 152 1 gusting 5 27.2
2020-Jul-10 08:50 191 1 gusting 5 26.7
2020-Jul-10 08:45 178 2 gusting 6 27.2
2020-Jul-10 08:40 182 1 gusting 6 27.2
2020-Jul-10 08:35 171 0 gusting 5 27.2
2020-Jul-10 08:30 171 2 gusting 5 27.2
2020-Jul-10 08:25 104 1 gusting 5 26.7
2020-Jul-10 08:20 183 1 gusting 5 26.7
2020-Jul-10 08:15 148 1 gusting 6 26.7
2020-Jul-10 08:10 177 1 gusting 6 26.7
2020-Jul-10 08:05 202 2 gusting 4 27.2
2020-Jul-10 08:00 117 0 gusting 4 27.2
2020-Jul-10 07:55 140 0 gusting 3 27.2
2020-Jul-10 07:50 110 26.7
2020-Jul-10 07:45 136 1 gusting 6 26.1
2020-Jul-10 07:40 174 0 gusting 5 26.7
2020-Jul-10 07:35 154 0 gusting 3 26.7
2020-Jul-10 07:30 177 26.1
2020-Jul-10 07:25 175 26.1
2020-Jul-10 07:20 119 0 gusting 3 26.1
2020-Jul-10 07:15 185 0 gusting 3 26.1
2020-Jul-10 07:10 142 26.1
2020-Jul-10 07:05 146 25.6
2020-Jul-10 07:00 146 25.6
2020-Jul-10 06:55 188 0 gusting 4 25.0
2020-Jul-10 06:50 181 25.6
2020-Jul-10 06:45 170 25.0
2020-Jul-10 06:40 169 25.6
2020-Jul-10 06:35 161 25.6
2020-Jul-10 06:30 175 25.0
2020-Jul-10 06:25 151 25.6
2020-Jul-10 06:20 005 25.6
2020-Jul-10 06:15 005 25.6
2020-Jul-10 06:10 005 25.0
2020-Jul-10 06:05 005 25.0
2020-Jul-10 06:00 005 25.0
2020-Jul-10 05:55 005 25.0
2020-Jul-10 05:51 005 24.4
2020-Jul-10 05:45 005 24.4
2020-Jul-10 05:40 005 24.4
2020-Jul-10 05:35 005 24.4
2020-Jul-10 05:30 005 23.9
2020-Jul-10 05:25 005 1 gusting 4 23.3
2020-Jul-10 05:20 005 1 gusting 4 23.3
2020-Jul-10 05:15 018 1 gusting 4 23.3
2020-Jul-10 05:10 360 0 gusting 5 22.8
2020-Jul-10 05:05 355 2 gusting 5 22.8
2020-Jul-10 05:00 355 0 gusting 5 22.8
2020-Jul-10 04:55 346 1 gusting 4 22.8
2020-Jul-10 04:50 005 0 gusting 5 22.2
2020-Jul-10 04:45 355 0 gusting 5 22.2
2020-Jul-10 04:40 355 0 gusting 5 22.2
2020-Jul-10 04:35 355 0 gusting 5 22.2
2020-Jul-10 04:30 360 0 gusting 4 22.2
2020-Jul-10 04:25 355 21.7
2020-Jul-10 04:20 034 0 gusting 5 21.7
2020-Jul-10 04:15 360 0 gusting 5 21.7
2020-Jul-10 04:10 360 0 gusting 3 21.7
2020-Jul-10 04:05 024 21.7
2020-Jul-10 04:00 011 21.7
2020-Jul-10 03:55 355 21.7
2020-Jul-10 03:50 005 0 gusting 3 21.7
2020-Jul-10 03:45 360 21.7
2020-Jul-10 03:40 360 21.7
2020-Jul-10 03:35 014 21.7
2020-Jul-10 03:30 355 0 gusting 4 21.7
2020-Jul-10 03:25 005 0 gusting 4 21.7
2020-Jul-10 03:20 005 0 gusting 5 21.7
2020-Jul-10 03:15 011 1 gusting 5 21.7
2020-Jul-10 03:10 360 2 gusting 5 21.7
2020-Jul-10 03:05 009 0 gusting 4 21.7
2020-Jul-10 03:00 005 21.7
2020-Jul-10 02:55 005 21.7
2020-Jul-10 02:50 005 22.2
2020-Jul-10 02:45 360 22.2
2020-Jul-10 02:40 360 22.2
2020-Jul-10 02:35 028 22.2
2020-Jul-10 02:30 013 1 gusting 4 22.2
2020-Jul-10 02:25 022 0 gusting 4 22.2
2020-Jul-10 02:20 005 22.2
2020-Jul-10 02:15 348 0 gusting 6 22.2
2020-Jul-10 02:10 005 3 gusting 6 22.2
2020-Jul-10 02:05 360 1 gusting 7 22.2
2020-Jul-10 02:00 350 2 gusting 8 22.2
2020-Jul-10 01:56 355 3 gusting 8 22.2
2020-Jul-10 01:50 349 4 gusting 7 22.2
2020-Jul-10 01:46 009 3 gusting 7 22.2
2020-Jul-10 01:40 343 2 gusting 8 22.2
2020-Jul-10 01:35 355 4 gusting 8 22.8
2020-Jul-10 01:30 042 1 gusting 6 22.8
2020-Jul-10 01:25 009 1 gusting 6 22.8
2020-Jul-10 01:20 342 1 gusting 9 22.8
2020-Jul-10 01:15 355 4 gusting 9 22.8
2020-Jul-10 01:10 024 4 gusting 7 22.8
2020-Jul-10 01:05 360 4 gusting 7 22.8
2020-Jul-10 01:00 360 4 gusting 7 22.8
2020-Jul-10 00:55 019 3 gusting 7 22.8
2020-Jul-10 00:50 360 1 gusting 5 22.8
2020-Jul-10 00:45 024 0 gusting 6 22.8
2020-Jul-10 00:40 032 0 gusting 6 23.3
2020-Jul-10 00:35 323 0 gusting 6 23.3
2020-Jul-10 00:30 355 2 gusting 6 23.3
2020-Jul-10 00:25 355 1 gusting 4 23.3
2020-Jul-10 00:20 355 0 gusting 4 23.3
2020-Jul-10 00:15 350 1 gusting 4 23.3
2020-Jul-10 00:10 355 0 gusting 5 23.3
2020-Jul-10 00:05 348 23.3
2020-Jul-10 00:00 005 0 gusting 3 23.3
2020-Jul-09 23:55 344 0 gusting 4 23.9
2020-Jul-09 23:50 355 0 gusting 4 23.9
2020-Jul-09 23:45 355 23.9
2020-Jul-09 23:40 355 1 gusting 3 23.9
2020-Jul-09 23:35 339 23.9
2020-Jul-09 23:30 349 23.9
2020-Jul-09 23:25 346 23.9
2020-Jul-09 23:20 349 23.9
2020-Jul-09 23:15 348 23.9
2020-Jul-09 23:10 355 23.9
2020-Jul-09 23:05 344 23.9
2020-Jul-09 23:00 342 23.9
2020-Jul-09 22:55 333 23.9
2020-Jul-09 22:50 339 23.9
2020-Jul-09 22:45 339 23.9
2020-Jul-09 22:40 336 23.9
2020-Jul-09 22:35 348 24.4
2020-Jul-09 22:30 348 24.4
2020-Jul-09 22:25 340 24.4
2020-Jul-09 22:20 346 24.4
2020-Jul-09 22:15 346 24.4
2020-Jul-09 22:10 345 24.4
2020-Jul-09 22:05 015 24.4
2020-Jul-09 22:00 036 24.4
2020-Jul-09 21:55 077 25.0
2020-Jul-09 21:50 105 25.0
2020-Jul-09 21:45 105 25.0
2020-Jul-09 21:40 127 25.0
2020-Jul-09 21:35 127 25.0
2020-Jul-09 21:30 127 25.0
2020-Jul-09 21:25 127 25.0
2020-Jul-09 21:20 127 25.0
2020-Jul-09 21:15 127 25.0
2020-Jul-09 21:10 122 0 gusting 3 25.6
2020-Jul-09 21:05 120 25.6
2020-Jul-09 21:00 120 25.6
2020-Jul-09 20:55 118 25.6
2020-Jul-09 20:50 117 25.6
2020-Jul-09 20:45 117 25.6
2020-Jul-09 20:40 115 25.6
2020-Jul-09 20:35 132 25.6
2020-Jul-09 20:30 153 25.6
2020-Jul-09 20:25 143 25.6
2020-Jul-09 20:20 163 0 gusting 4 25.6
2020-Jul-09 20:15 127 25.6
2020-Jul-09 20:10 121 25.6
2020-Jul-09 20:05 121 0 gusting 3 25.6
2020-Jul-09 20:00 125 0 gusting 3 25.6
2020-Jul-09 19:55 124 26.1
2020-Jul-09 19:50 115 26.1
2020-Jul-09 19:45 129 0 gusting 4 26.1
2020-Jul-09 19:40 157 25.6
2020-Jul-09 19:36 155 25.6
2020-Jul-09 19:30 165 25.6
2020-Jul-09 19:25 139 0 gusting 5 25.6
2020-Jul-09 19:20 126 25.6
2020-Jul-09 19:15 122 26.1
2020-Jul-09 19:10 126 26.1
2020-Jul-09 19:05 126 26.1
2020-Jul-09 19:00 126 26.1
2020-Jul-09 18:55 126 26.1
2020-Jul-09 18:50 126 26.1
2020-Jul-09 18:45 148 26.1
2020-Jul-09 18:40 148 26.1
2020-Jul-09 18:35 148 26.1
2020-Jul-09 18:30 146 26.1
2020-Jul-09 18:25 134 26.1
2020-Jul-09 18:20 151 26.1
2020-Jul-09 18:15 152 26.1
2020-Jul-09 18:10 136 26.1
2020-Jul-09 18:05 144 26.1
2020-Jul-09 18:00 161 0 gusting 4 26.1
2020-Jul-09 17:55 137 26.1
2020-Jul-09 17:50 147 26.1
2020-Jul-09 17:45 178 26.1
2020-Jul-09 17:40 190 26.1
2020-Jul-09 17:35 150 26.1
2020-Jul-09 17:30 182 1 gusting 6 26.1
2020-Jul-09 17:25 138 26.1
2020-Jul-09 17:20 148 0 gusting 5 26.1
2020-Jul-09 17:15 205 0 gusting 6 26.1
2020-Jul-09 17:10 132 1 gusting 6 26.1
2020-Jul-09 17:05 142 26.1
2020-Jul-09 17:00 179 1 gusting 6 26.1
2020-Jul-09 16:55 189 1 gusting 6 26.1
2020-Jul-09 16:50 156 1 gusting 7 26.1
2020-Jul-09 16:45 169 0 gusting 7 26.1
2020-Jul-09 16:40 148 2 gusting 6 26.1
2020-Jul-09 16:35 210 26.1
2020-Jul-09 16:30 101 1 gusting 6 26.1
2020-Jul-09 16:05 161 0 gusting 6 26.7
2020-Jul-09 16:00 163 0 gusting 6 26.7
2020-Jul-09 15:55 144 1 gusting 6 26.7
2020-Jul-09 15:50 166 0 gusting 6 26.7
2020-Jul-09 15:45 136 0 gusting 6 26.7
2020-Jul-09 15:40 168 0 gusting 6 26.7
2020-Jul-09 15:35 170 2 gusting 8 26.7
2020-Jul-09 15:30 152 3 gusting 8 26.7
2020-Jul-09 15:25 159 2 gusting 7 26.7
2020-Jul-09 15:20 169 1 gusting 8 26.7
2020-Jul-09 15:15 140 26.7
2020-Jul-09 15:05 169 2 gusting 9 26.7
2020-Jul-09 15:00 175 0 gusting 9 26.7
2020-Jul-09 14:55 178 6 gusting 9 26.7
2020-Jul-09 14:50 161 3 gusting 8 26.7
2020-Jul-09 14:45 176 3 gusting 8 26.7
2020-Jul-09 14:40 136 3 gusting 8 26.7
2020-Jul-09 14:35 169 1 gusting 8 26.7
2020-Jul-09 14:30 140 2 gusting 7 26.7
2020-Jul-09 14:25 161 1 gusting 7 26.7
2020-Jul-09 14:20 144 2 gusting 9 26.7
2020-Jul-09 14:15 200 0 gusting 8 26.7
2020-Jul-09 14:10 117 1 gusting 8 27.2
2020-Jul-09 14:05 146 1 gusting 6 27.2
2020-Jul-09 14:00 159 27.2
2020-Jul-09 13:55 157 4 gusting 8 26.7
2020-Jul-09 13:50 142 2 gusting 8 26.7
2020-Jul-09 13:45 144 2 gusting 7 26.7
2020-Jul-09 13:40 143 2 gusting 7 26.7
2020-Jul-09 13:35 172 2 gusting 9 26.7
2020-Jul-09 13:30 124 0 gusting 9 26.7
2020-Jul-09 13:25 146 1 gusting 8 26.7
2020-Jul-09 13:20 167 6 gusting 8 26.7
2020-Jul-09 13:15 158 3 gusting 7 27.2
2020-Jul-09 13:10 159 1 gusting 7 27.2
2020-Jul-09 13:05 153 2 gusting 8 27.2
2020-Jul-09 13:00 138 1 gusting 9 27.2
2020-Jul-09 12:55 150 2 gusting 9 27.2
2020-Jul-09 12:50 150 0 gusting 9 27.2
2020-Jul-09 12:45 188 1 gusting 9 27.2
2020-Jul-09 12:40 169 3 gusting 9 27.2
2020-Jul-09 12:35 180 1 gusting 9 27.2
2020-Jul-09 12:30 182 2 gusting 12 27.8
2020-Jul-09 12:25 180 5 gusting 12 27.2
2020-Jul-09 12:20 159 1 gusting 12 27.2
2020-Jul-09 12:15 188 3 gusting 10 27.2
2020-Jul-09 12:10 148 4 gusting 10 26.7
2020-Jul-09 12:05 173 6 gusting 13 27.2
2020-Jul-09 12:00 126 5 gusting 13 27.8
2020-Jul-09 11:55 192 2 gusting 12 27.8
2020-Jul-09 11:50 169 2 gusting 12 27.2
2020-Jul-09 11:45 167 5 gusting 13 27.2
2020-Jul-09 11:40 173 6 gusting 13 27.2
2020-Jul-09 11:35 174 4 gusting 11 27.8
2020-Jul-09 11:30 099 0 gusting 11 27.8
2020-Jul-09 11:25 188 1 gusting 9 28.3
2020-Jul-09 11:20 187 2 gusting 11 27.2
2020-Jul-09 11:15 190 5 gusting 12 27.8
2020-Jul-09 11:10 185 2 gusting 12 27.2
2020-Jul-09 11:05 115 2 gusting 12 27.2
2020-Jul-09 11:00 175 4 gusting 10 27.8
2020-Jul-09 10:55 166 2 gusting 10 27.8
2020-Jul-09 10:50 167 5 gusting 9 27.8
2020-Jul-09 10:45 186 1 gusting 9 27.2
2020-Jul-09 10:40 187 6 gusting 10 27.8
2020-Jul-09 10:35 074 0 gusting 10 27.8
2020-Jul-09 10:30 173 4 gusting 9 27.8
2020-Jul-09 10:25 155 6 gusting 9 27.2
2020-Jul-09 10:20 184 6 gusting 9 27.2
2020-Jul-09 10:15 165 5 gusting 9 27.2
2020-Jul-09 10:10 176 4 gusting 8 27.8
2020-Jul-09 10:05 169 3 gusting 8 27.2
2020-Jul-09 10:00 162 4 gusting 8 27.2
2020-Jul-09 09:55 190 4 gusting 8 27.2
2020-Jul-09 09:50 174 5 gusting 8 27.2
2020-Jul-09 09:45 217 3 gusting 8 27.2
2020-Jul-09 09:40 185 6 gusting 9 27.8
2020-Jul-09 09:35 175 3 gusting 8 27.2
2020-Jul-09 09:30 147 1 gusting 8 27.8
2020-Jul-09 09:25 157 3 gusting 8 27.2
2020-Jul-09 09:20 191 6 gusting 8 27.8
2020-Jul-09 09:15 190 1 gusting 6 27.2
2020-Jul-09 09:10 169 1 gusting 7 27.2
2020-Jul-09 09:05 175 2 gusting 7 27.2
2020-Jul-09 09:00 167 4 gusting 8 26.7
2020-Jul-09 08:55 150 6 gusting 8 26.7
2020-Jul-09 08:50 173 3 gusting 8 27.2
2020-Jul-09 08:45 146 4 gusting 8 27.2
2020-Jul-09 08:41 177 2 gusting 8 27.2
2020-Jul-09 08:35 136 1 gusting 8 27.2
2020-Jul-09 08:30 167 2 gusting 6 27.2
2020-Jul-09 08:25 142 1 gusting 6 27.2
2020-Jul-09 08:20 150 3 gusting 6 27.2
2020-Jul-09 08:15 159 3 gusting 6 27.2
2020-Jul-09 08:10 170 3 gusting 6 27.2
2020-Jul-09 08:05 136 1 gusting 6 27.2
2020-Jul-09 08:00 137 3 gusting 7 26.7
2020-Jul-09 07:55 194 3 gusting 7 26.7
2020-Jul-09 07:50 177 2 gusting 6 26.7
2020-Jul-09 07:45 161 2 gusting 6 26.7
2020-Jul-09 07:40 197 3 gusting 6 26.7
2020-Jul-09 07:35 207 3 gusting 6 26.7
2020-Jul-09 07:30 195 2 gusting 6 26.7
2020-Jul-09 07:25 193 2 gusting 6 26.7
2020-Jul-09 07:20 165 2 gusting 6 26.7
2020-Jul-09 07:15 200 26.7
2020-Jul-09 07:10 196 1 gusting 6 26.7
2020-Jul-09 07:05 170 26.7
2020-Jul-09 07:00 119 1 gusting 6 26.7
2020-Jul-09 06:55 151 1 gusting 6 26.1
2020-Jul-09 06:50 177 1 gusting 5 26.1
2020-Jul-09 06:45 155 0 gusting 5 26.1
2020-Jul-09 06:40 182 0 gusting 5 26.1
2020-Jul-09 06:35 165 1 gusting 4 26.7
2020-Jul-09 06:30 167 0 gusting 4 26.1
2020-Jul-09 06:25 158 26.1
2020-Jul-09 06:20 148 26.7
2020-Jul-09 06:15 147 26.1
2020-Jul-09 06:10 150 25.6
2020-Jul-09 06:05 134 26.1
2020-Jul-09 06:00 086 26.1
2020-Jul-09 05:55 085 26.1
2020-Jul-09 05:50 085 25.6
2020-Jul-09 05:45 081 25.6
2020-Jul-09 05:40 053 25.6
2020-Jul-09 05:35 053 25.6
2020-Jul-09 05:30 053 25.6
2020-Jul-09 05:25 053 25.6
2020-Jul-09 05:20 052 25.6
2020-Jul-09 05:15 052 25.0
2020-Jul-09 05:10 049 25.6
2020-Jul-09 05:05 032 25.0
2020-Jul-09 05:00 032 25.0
2020-Jul-09 04:55 032 25.0
2020-Jul-09 04:50 032 25.0
2020-Jul-09 04:45 031 25.0
2020-Jul-09 04:40 031 24.4
2020-Jul-09 04:35 031 24.4
2020-Jul-09 04:30 032 24.4
2020-Jul-09 04:25 032 23.9
2020-Jul-09 04:20 028 23.9
2020-Jul-09 04:15 005 0 gusting 3 23.9
2020-Jul-09 04:10 044 23.9
2020-Jul-09 04:05 035 23.9
2020-Jul-09 04:00 040 23.9